[[{"header":{"parameterUnit":"m.s-1","parameterCategory":1,"la1":30.2991,"la2":30.254,"lo1":-89.0895,"lo2":-89.0444,"dy":0.0017,"dx":0.0017,"nx":28,"ny":28,"refTime":"2025-01-30T03:00:00:Z","depth":0,"parameterNumber":2,"parameterNumberName":"U-component_of_WINDS"},"data":[0,0,0,0,0,0,0,0,0,0,0,0,0,0,0,0,0,0,0,0,0,0,0,0,0,0,0,0,0,0,0,0,0,0,0,0,0,0,0,0,0,0,0,0,0,0,0,0,0,0,0,0,0,0,0,0,0,0,-3.8544,-3.8544,0,-3.862,-3.8621,-3.8621,-3.8589,-3.8588,-3.8586,-3.8584,-3.8662,-3.8665,-3.8669,0,0,0,0,0,0,0,0,0,0,0,0,0,-3.8371,-3.8374,-3.8544,-3.8545,-3.8545,-3.862,-3.8621,-3.8622,-3.859,-3.8588,-3.8585,-3.8583,-3.8661,-3.8665,-3.867,0,0,0,0,0,0,0,0,0,0,0,0,0,-3.8447,-3.8376,-3.8543,-3.8539,-3.8539,-3.8619,-3.8621,-3.8622,-3.859,-3.8587,-3.8585,-3.8582,-3.8659,-3.8665,-3.867,-3.876,0,0,-3.8687,-3.869,0,0,0,0,0,0,0,0,-3.8442,-3.8453,-3.8538,-3.8539,-3.8539,-3.8592,-3.8588,-3.8668,-3.8591,-3.8571,-3.8584,-3.8581,-3.8641,-3.8648,-3.8668,-3.8764,-3.8767,-3.8688,-3.8691,-3.8694,-3.8695,0,0,0,0,0,0,0,-3.8437,-3.8449,-3.8574,-3.854,-3.854,-3.8533,-3.854,-3.8603,-3.862,-3.8572,-3.857,-3.858,-3.8641,-3.8663,-3.867,-3.8768,-3.8688,-3.8693,-3.8696,-3.8698,-3.8941,-3.8944,0,0,0,0,0,0,-3.8432,-3.8445,-3.8571,-3.8576,-3.8483,-3.8538,-3.8547,-3.8578,-3.8619,-3.8623,-3.8582,-3.8578,-3.8654,-3.8663,-3.8672,-3.8779,-3.8694,-3.8699,-3.8702,-3.8938,-3.8942,-3.8945,0,0,0,0,0,0,-3.8428,-3.8443,-3.8568,-3.851,-3.8525,-3.8544,-3.858,-3.8581,-3.8603,-3.8627,-3.863,-3.8601,-3.8653,-3.8664,-3.8738,-3.8782,-3.8702,-3.8707,-3.8934,-3.8939,-3.8943,-3.8994,0,0,0,0,0,0,-3.8423,-3.8442,-3.8476,-3.8511,-3.8529,-3.8633,-3.8582,-3.8585,-3.8613,-3.8608,-3.8646,-3.8649,-3.8651,-3.873,-3.8744,-3.8788,-3.8711,-3.893,-3.8936,-3.8942,-3.8989,-3.9,-3.901,0,0,0,0,0,-3.8417,-3.8488,-3.8478,-3.8493,-3.8572,-3.8635,-3.8645,-3.8646,-3.8617,-3.8651,-3.8666,-3.8648,-3.8775,-3.8738,-3.8753,-3.88,-3.8928,-3.8935,-3.8941,-3.8984,-3.8998,-3.901,0,0,0,0,0,0,-3.8457,-3.8492,-3.8482,-3.8566,-3.8598,-3.863,-3.8673,-3.8661,-3.8702,-3.8696,-3.8696,-3.8705,-3.8781,-3.8798,-3.8756,-3.8889,-3.8847,-3.8857,-3.8874,-3.8888,-3.8898,-3.8891,-3.8716,0,0,0,0,0,-3.8476,-3.8524,-3.8553,-3.8624,-3.8641,-3.8654,-3.8682,-3.868,-3.8714,-3.8727,-3.8748,-3.8781,-3.8828,-3.8859,-3.8904,-3.8992,-3.8999,-3.9032,-3.9042,-3.9051,-3.9059,-3.9106,-3.9121,-3.8967,-3.8967,-3.8967,0,0,-3.8514,-3.8539,-3.857,-3.8632,-3.8657,-3.8707,-3.8666,-3.8721,-3.8758,-3.8735,-3.8806,-3.8823,-3.886,-3.8941,-3.8978,-3.8957,-3.9103,-3.906,-3.9066,-3.907,-3.9115,-3.9129,-3.9142,-3.8972,-3.8971,-3.897,0,0,-3.861,-3.8634,-3.8696,-3.8722,-3.876,-3.8769,-3.8784,-3.8818,-3.8828,-3.89,-3.8884,-3.8929,-3.901,-3.9037,-3.9061,-3.9169,-3.9153,-3.9184,-3.9238,-3.9284,-3.9296,-3.9307,-3.9344,-3.9357,-3.9193,-3.9193,-3.9193,0,-3.8652,-3.8727,-3.8729,-3.8785,-3.8813,-3.8796,-3.8858,-3.8883,-3.8934,-3.8954,-3.8931,-3.9033,-3.9057,-3.9144,-3.917,-3.9191,-3.9208,-3.9178,-3.9294,-3.9305,-3.9315,-3.935,-3.9364,-3.9196,-3.9196,-3.9195,-3.9195,0,-3.8778,-3.883,-3.8876,-3.8925,-3.8959,-3.9018,-3.9028,-3.9062,-3.9058,-3.907,-3.9143,-3.9171,-3.9221,-3.9242,-3.9239,-3.9329,-3.9315,-3.9294,-3.9251,-3.9333,-3.9366,-3.9379,-3.9201,-3.92,-3.9199,-3.9198,0,0,-3.8898,-3.8949,-3.8965,-3.8987,-3.9029,-3.907,-3.9129,-3.9178,-3.9206,-3.9243,-3.9292,-3.9362,-3.9343,-3.937,-3.937,-3.9411,-3.9494,-3.9384,-3.9385,-3.9402,-3.9593,-3.9608,-3.9623,-3.9485,-3.9487,-3.9489,-3.959,0,-3.8995,-3.9097,-3.9101,-3.9195,-3.9243,-3.9228,-3.928,-3.9311,-3.9324,-3.9367,-3.9382,-3.9431,-3.9402,-3.9419,-3.9459,-3.9475,-3.9532,-3.9468,-3.9529,-3.9531,-3.9518,-3.9641,-3.9656,-3.9749,-3.9603,-3.9605,-3.9607,0,-3.9121,-3.9162,-3.926,-3.9295,-3.9316,-3.9362,-3.9407,-3.9449,-3.9485,-3.9491,-3.9523,-3.9518,-3.9578,-3.9536,-3.9618,-3.9575,-3.9601,-3.9613,-3.9617,-3.962,-3.9572,-3.9646,-3.9779,-3.9792,-3.9627,-3.9626,-3.9624,0,-3.9196,-3.9276,-3.9345,-3.9365,-3.9408,-3.9441,-3.946,-3.9493,-3.9523,-3.9563,-3.9582,-3.963,-3.9655,-3.9692,-3.9699,-3.9668,-3.9782,-3.974,-3.9788,-3.9788,-3.981,-3.9808,-3.9947,-3.9831,-3.9831,-3.9831,-3.983,0,-3.9303,-3.9363,-3.9379,-3.9421,-3.9489,-3.9494,-3.956,-3.9577,-3.9607,-3.9653,-3.9644,-3.9687,-3.9695,-3.974,-3.9746,-3.9813,-3.9825,-3.9832,-3.9832,-3.9831,-3.983,-3.9846,-3.9839,-3.9834,-3.9834,-3.9833,-3.9832,0,-3.9397,-3.941,-3.9484,-3.952,-3.953,-3.9578,-3.9608,-3.9649,-3.9662,-3.9719,-3.9733,-3.9753,-3.9806,-3.9818,-3.988,-3.9884,-3.9963,-3.9959,-3.9951,-3.995,-3.9996,-3.9991,-4.0148,-4.0168,-4.0041,-4.0042,-4.0043,0,-3.9463,-3.9509,-3.955,-3.9579,-3.96,-3.9649,-3.9679,-3.9686,-3.9718,-3.9763,-3.9798,-3.985,-3.9891,-3.9975,-3.9995,-4.0043,-4.0038,-4.009,-4.0045,-4.0042,-4.0036,-4.0032,-4.0036,-4.0097,-4.0099,-4.01,-4.0101,0,-3.9578,-3.9582,-3.9626,-3.9673,-3.9709,-3.9747,-3.9782,-3.9807,-3.9819,-3.9856,-3.9909,-3.9941,-4.0005,-4.0056,-4.0104,-4.0124,-4.0115,-4.0116,-4.0129,-4.0126,-4.0119,-4.0122,-3.9972,-4.0111,-4.011,-4.0109,-4.0109,-4.0108,-3.9658,-3.9698,-3.9733,-3.9782,-3.981,-3.9844,-3.9883,-3.9902,-3.9946,-3.9999,-4.0001,-4.0059,-4.0094,-4.0158,-4.0181,-4.0227,-4.0211,-4.023,-4.0235,-4.0239,-4.0242,-4.0114,-4.0236,-4.0236,-4.0236,-4.0235,-4.0235,0,-3.977,-3.9793,-3.9838,-3.9888,-3.9927,-3.9916,-3.9955,-3.9988,-4.0039,-4.0074,-4.0115,-4.0176,-4.0226,-4.0251,-4.03,-4.0332,-4.0328,-4.0344,-4.0341,-4.0345,-4.0255,-4.0237,-4.0346,-4.0346,-4.0346,-4.0346,-4.0346,-4.0346,-3.9833,-3.99,-3.9909,-3.999,-4.0012,-4.0069,-4.0092,-4.0123,-4.015,-4.0219,-4.026,-4.0277,-4.0307,-4.0359,-4.0404,-4.041,-4.0428,-4.0445,-4.0449,-4.0363,-4.0352,-4.0341,-4.0324,-4.045,-4.045,-4.0535,-4.0536,-4.0537]},{"header":{"parameterUnit":"m.s-1","parameterCategory":1,"la1":30.2991,"la2":30.254,"lo1":-89.0895,"lo2":-89.0444,"dy":0.0017,"dx":0.0017,"nx":28,"ny":28,"refTime":"2025-01-30T03:00:00:Z","depth":0,"parameterNumber":3,"parameterNumberName":"V-component_of_WINDS"},"data":[0,0,0,0,0,0,0,0,0,0,0,0,0,0,0,0,0,0,0,0,0,0,0,0,0,0,0,0,0,0,0,0,0,0,0,0,0,0,0,0,0,0,0,0,0,0,0,0,0,0,0,0,0,0,0,0,0,0,2.2929,2.293,0,2.2976,2.2976,2.2977,2.2986,2.2986,2.2985,2.2985,2.3032,2.3034,2.3035,0,0,0,0,0,0,0,0,0,0,0,0,0,2.285,2.2851,2.2929,2.293,2.293,2.2976,2.2977,2.2977,2.2986,2.2986,2.2985,2.2985,2.3032,2.3034,2.3036,0,0,0,0,0,0,0,0,0,0,0,0,0,2.2889,2.2852,2.2929,2.294,2.2942,2.2976,2.2977,2.2977,2.2986,2.2986,2.2985,2.2985,2.3031,2.3033,2.3036,2.3061,0,0,2.3043,2.3044,0,0,0,0,0,0,0,0,2.2887,2.2892,2.2938,2.294,2.2941,2.2975,2.2966,2.3006,2.2986,2.2969,2.2985,2.2984,2.3014,2.3017,2.3027,2.3064,2.3066,2.3043,2.3045,2.3046,2.3046,0,0,0,0,0,0,0,2.2884,2.289,2.2948,2.2939,2.2941,2.2944,2.2949,2.2973,2.2994,2.2971,2.2972,2.2977,2.3014,2.3025,2.3028,2.3066,2.3043,2.3045,2.3047,2.3048,2.313,2.313,0,0,0,0,0,0,2.2879,2.2888,2.2946,2.2949,2.2912,2.2946,2.2951,2.2965,2.2994,2.2998,2.2977,2.2977,2.3021,2.3026,2.303,2.3064,2.3046,2.3048,2.3049,2.3129,2.313,2.3131,0,0,0,0,0,0,2.2878,2.2884,2.2944,2.2919,2.2927,2.2948,2.2963,2.2966,2.2976,2.2999,2.3002,2.2984,2.3021,2.3027,2.3054,2.3066,2.3049,2.3051,2.3128,2.3129,2.313,2.3132,0,0,0,0,0,0,2.2875,2.2884,2.2893,2.2919,2.2928,2.2967,2.2963,2.2967,2.2981,2.2981,2.3006,2.301,2.3021,2.3051,2.3057,2.3069,2.3053,2.3127,2.3129,2.313,2.3131,2.3133,2.3134,0,0,0,0,0,2.2872,2.2891,2.2894,2.2901,2.294,2.2968,2.2973,2.2986,2.2981,2.2992,2.3007,2.3009,2.3064,2.3054,2.306,2.3073,2.3126,2.3128,2.313,2.313,2.3132,2.3134,0,0,0,0,0,0,2.2865,2.2894,2.2898,2.2925,2.2944,2.2969,2.2982,2.2987,2.3008,2.3007,2.3021,2.3027,2.3054,2.3067,2.3055,2.3102,2.3095,2.3098,2.3093,2.3095,2.3097,2.3094,2.3055,0,0,0,0,0,2.2867,2.2887,2.2911,2.2933,2.2943,2.2961,2.2973,2.2982,2.3002,2.301,2.3027,2.3046,2.3068,2.3082,2.3103,2.3132,2.3139,2.3145,2.3147,2.3148,2.3151,2.317,2.3174,2.3136,2.3136,2.3136,0,0,2.287,2.2889,2.29,2.2932,2.2948,2.2969,2.2968,2.2989,2.3006,2.3013,2.3041,2.3054,2.3077,2.3106,2.312,2.3117,2.3163,2.315,2.3151,2.3153,2.3172,2.3176,2.3179,2.3137,2.3137,2.3137,0,0,2.2887,2.2903,2.2924,2.294,2.2965,2.2977,2.2982,2.3008,2.3017,2.3046,2.3052,2.3072,2.3109,2.3126,2.3139,2.3166,2.3171,2.3173,2.3183,2.3201,2.3204,2.3207,2.3219,2.3223,2.3175,2.3175,2.3175,0,2.2889,2.2921,2.2934,2.2957,2.2971,2.298,2.3003,2.3018,2.3048,2.3058,2.3055,2.3103,2.3119,2.3154,2.3161,2.317,2.3178,2.317,2.3203,2.3206,2.3208,2.322,2.3224,2.3176,2.3176,2.3176,2.3176,0,2.2922,2.2944,2.2959,2.2989,2.3005,2.3027,2.3045,2.306,2.3068,2.3081,2.3111,2.3131,2.3157,2.3166,2.3173,2.3203,2.3201,2.32,2.3194,2.3212,2.3223,2.3227,2.3176,2.3176,2.3176,2.3176,0,0,2.2934,2.2974,2.2979,2.2994,2.3023,2.3041,2.3064,2.3091,2.3105,2.3126,2.3147,2.3179,2.318,2.3195,2.3204,2.322,2.3244,2.3218,2.3219,2.3224,2.3281,2.3282,2.3287,2.3246,2.3247,2.3248,2.328,0,2.2957,2.2999,2.3013,2.3049,2.3071,2.3082,2.3103,2.3123,2.3137,2.3158,2.3173,2.3197,2.3194,2.3204,2.3221,2.3237,2.3255,2.3235,2.3268,2.3269,2.3263,2.3292,2.3293,2.3322,2.3284,2.3284,2.3285,0,2.2987,2.3011,2.3049,2.3078,2.3088,2.3106,2.3134,2.3154,2.3178,2.3187,2.3206,2.3215,2.3241,2.3233,2.3271,2.3257,2.3271,2.3282,2.3283,2.3288,2.3279,2.3299,2.3332,2.3337,2.3291,2.3291,2.329,0,2.2995,2.3036,2.3065,2.3077,2.3111,2.3124,2.3139,2.3163,2.318,2.3204,2.3215,2.3241,2.3256,2.3277,2.3293,2.3285,2.333,2.3323,2.334,2.334,2.3349,2.3349,2.3386,2.3356,2.3356,2.3356,2.3356,0,2.3019,2.3042,2.3069,2.3087,2.3115,2.3131,2.3158,2.3174,2.3196,2.3218,2.3228,2.3248,2.3268,2.3291,2.3304,2.3335,2.3341,2.335,2.3353,2.335,2.3349,2.336,2.3359,2.3357,2.3357,2.3357,2.3356,0,2.3032,2.305,2.3083,2.3114,2.3122,2.3141,2.3168,2.3187,2.3202,2.323,2.3237,2.3261,2.329,2.3308,2.3343,2.3352,2.3387,2.3388,2.3379,2.3381,2.3397,2.3396,2.3444,2.3452,2.3415,2.3416,2.3416,0,2.3046,2.3065,2.3098,2.3114,2.313,2.3155,2.3172,2.319,2.3208,2.3239,2.3255,2.3284,2.3309,2.3354,2.3375,2.3403,2.3407,2.3422,2.3411,2.3408,2.341,2.3409,2.3412,2.3424,2.3424,2.3424,2.3424,0,2.307,2.3079,2.3104,2.3133,2.3154,2.3178,2.3201,2.3214,2.3236,2.3256,2.3286,2.3305,2.3343,2.3373,2.3404,2.342,2.3427,2.3428,2.3434,2.3431,2.3425,2.3431,2.3385,2.3427,2.3426,2.3426,2.3426,2.3426,2.3085,2.3104,2.3131,2.3159,2.3179,2.3202,2.3222,2.3241,2.3266,2.3299,2.3309,2.3341,2.3368,2.341,2.3427,2.3453,2.3451,2.3458,2.3461,2.3463,2.3465,2.3421,2.3458,2.3458,2.3458,2.3458,2.3458,0,2.3112,2.313,2.3156,2.319,2.3213,2.3218,2.3245,2.3264,2.3293,2.3318,2.3343,2.3379,2.3409,2.3433,2.3464,2.348,2.3485,2.3488,2.3488,2.3492,2.3463,2.3456,2.3485,2.3485,2.3485,2.3485,2.3485,2.3485,2.3128,2.316,2.3173,2.3217,2.3236,2.3268,2.3283,2.3305,2.3325,2.3366,2.3391,2.3407,2.3433,2.3466,2.3495,2.3501,2.3513,2.3516,2.3524,2.3496,2.3493,2.3491,2.3484,2.3518,2.3518,2.355,2.3551,2.3551]}]]